Find Starlink 30368

NORAD ID: 57752 Int'l Des: 2023-131 Owner: SPXS Country: US Constellation: starlink operational
LEOCIRCULAR

实时位置

正在加载3D地球...

关于 Starlink 30368

正在加载描述...

即将过境

Passes for default location (London). Set your location on the main map for personalized predictions.

高度历史

Loading altitude history...

两行轨道根数

1 57752U 23131W 26122.30453838 -.00000251 00000-0 30959-6 0 9994
2 57752 43.0004 229.8419 0000896 247.8755 112.2001 15.26736379148116
Epoch: May 2, 2026 • Age: 9 hours

当前状态

高度 488.6 km
速度 7.62 km/s
星下点 -15.52°S, 100.37°E
发射日期 Sep 1, 2023
运行时间 2.6 years
类型 internet

技术详情

分类 Payload
质量 730.00 kg
干质量 700.00 kg
总质量 730.00 kg
长度 0.30 m
直径 4.10 m
跨度 29.00 m
形状 Box + pan
制造商 SPXS
平台类型 Starlink V2M
阶段状态 In Orbit
所有者/国家 SPXS/US

Most Searched